Hauptseite
METAR-TAF:

METAR-TAF

Flughäfen :

Plzeň, Tschechien

Breite: 49-40-31N, Länge: 13-16-29E, Höhe: 362 m

Beobachtung

Neuester Wetterbericht von vor 52 Minuten, um 03:00 UTC
Wind 3 kt aus Nord/Nordost, variierte zwischen Nord und Ost
Temperatur 0°C
Luftfeuchtigkeit 69%
Luftdruck 1017 hPa
Sichtweite 10 km oder mehr
Durchbrochene Bewölkung in der Höhe von 2800 ft
Durchbrochene Bewölkung in der Höhe von 4100 ft
Geschlossene Wolkendecke in der Höhe von 7700 ft

METAR: LKLN 190300Z AUTO 03003KT 360V080 9999 BKN028 BKN041 OVC077 M00/M05 Q1017

Zeit: 04:52 (03:52 UTC)


TAF: fehlend

Wetterbeobachtungen und Prognosen von mehr als 4000 Flughäfen (METAR und TAF Bericht).

Die verfügbaren Stationen werden durch gelbe und rote Markierungen auf der Karte dargestellt.

Führen Sie die Maus auf sie, um den Namen der Station zu sehen.

Darauf klicken, um die Beobachtung von Wetterbeobachtungen und Prognosen zu sehen.

Um die Karte zu ändern : klicken Sie auf den grünen Tasten mit einem schwarzen Kreuz Zum Vergrößern, auf den grünen Button mit einem Gedankenstrich zu verkleinern, oder auf die grünen Pfeile für benachbarte Karten.


METAR-TAF: